Zurück zum Katalog

STARLINK-2383

AktivKommunikationVLEO
NORAD 47802·PAYLOAD·🇺🇸 United States

Gestartet Mar 11, 2021 von Cape Canaveral Space Force Station

Loading…

Nächste Überflüge (nächste 24 Stunden)

TLE

AktuellSource: CelesTrak SupGP

Epoche: Sep 15, 2026, 02:36 UTC

1 47802C 21018R   26258.10881944 -.00000068  00000+0 -21964-5 0  2581
2 47802  53.1584  94.3456 0001305  72.2126 109.4841 15.31701503    13

Verfolge STARLINK-2383 in Echtzeit mit AllMySat

Download on the App Store